Content
SEND FEEDBACK

Daily
Averages
Monthly
Summary
United States of America

LAVINIA, IOWA


Home > North America > United States > Iowa
Elevation: 1202 feet     Latitude: 42 02N     Longitude: 094 47W

WEATHER
 
SELECT A DAY
Number of Records: 335,618;   Date Range: 4/23/95 - 7/26/14
 
SHARE

PRINT THIS DATA

[ ← Previous Day ]
WEATHER ALMANAC - JANUARY 31, 2013
[ Next Day → ]
[ °C ]   °F
Weather ElementAverageHighLow
Temperature3.1 °F8.6 °F (12:35 am)-2.2 °F (9:35 pm)
Dewpoint-6.6 °F3.2 °F (12:35 am)-13 °F (11:35 pm)
Humidity64.4 %79 % (12:35 am)56 % (1:35 pm)
Barometer30.13 in30.35 in (10:35 pm)29.87 in (12:35 am)
Wind Speed21.3 mph31.1 mph (1:55 pm)
Wind Gust41.4 mph (1:35 pm)
Weather ElementAverage
Visibility9.3 mi
Wind DirectionWNW (306.4 °)

Weather ElementTotal
Precipitation---
Heating Degree Days61.8 (Base 65)
Averaged from 70 records on January 31, 2013
WEATHER CONDITIONS BREAKOUT
WIND DIRECTION BREAKOUT
WEATHER BY HOUR - JANUARY 31, 2013
[ °C ]   °F
Local TimeTemperatureDewpointHumidityBarometerVisibilityWind DirectionWind SpeedGust SpeedPrecipitationEventsConditions
12:35 AM8.6 °F3.2 °F79 %29.87 in10.0 miWNW (300°)17.3 mph27.6 mphClear
12:55 AM8.6 °F3.2 °F79 %29.87 in10.0 miWNW (300°)16.1 mph23.0 mphClear
1:15 AM8.6 °F1.4 °F73 %29.87 in10.0 miNW (310°)13.8 mph23.0 mphClear
1:35 AM8.6 °F1.4 °F73 %29.87 in10.0 miWNW (300°)12.7 mphClear
1:55 AM6.8 °F1.4 °F79 %29.88 in10.0 miWNW (290°)13.8 mphClear
2:15 AM6.8 °F-0.4 °F72 %29.89 in10.0 miWNW (300°)18.4 mphPartly Cloudy
2:35 AM6.8 °F-0.4 °F72 %29.89 in10.0 miWNW (300°)13.8 mph20.7 mphPartly Cloudy
2:55 AM6.8 °F-2.2 °F67 %29.90 in10.0 miWNW (300°)24.2 mphClear
3:15 AM5.0 °F-2.2 °F72 %29.90 in10.0 miWNW (300°)18.4 mphClear
3:35 AM5.0 °F-2.2 °F72 %29.90 in10.0 miWNW (300°)16.1 mph25.3 mphClear
3:55 AM5.0 °F-2.2 °F72 %29.90 in10.0 miWNW (290°)19.6 mph26.5 mphClear
4:15 AM5.0 °F-4.0 °F66 %29.91 in10.0 miWNW (300°)18.4 mphClear
4:35 AM5.0 °F-4.0 °F66 %29.92 in10.0 miWNW (300°)20.7 mph26.5 mphClear
4:55 AM3.2 °F-4.0 °F72 %29.93 in10.0 miNW (310°)17.3 mph24.2 mphClear
5:15 AM3.2 °F-5.8 °F66 %29.94 in10.0 miNW (310°)21.9 mphMostly Cloudy
5:35 AM3.2 °F-7.6 °F61 %29.94 in10.0 miNW (310°)19.6 mph26.5 mphOvercast
5:55 AM3.2 °F-5.8 °F66 %29.95 in10.0 miNW (310°)19.6 mphOvercast
6:15 AM3.2 °F-7.6 °F61 %29.96 in10.0 miNW (310°)19.6 mph26.5 mphOvercast
6:55 AM3.2 °F-5.8 °F66 %29.97 in10.0 miNW (320°)21.9 mphOvercast
7:15 AM3.2 °F-5.8 °F66 %29.99 in10.0 miNW (320°)23.0 mph29.9 mphOvercast
7:35 AM3.2 °F-5.8 °F66 %30.00 in10.0 miNW (320°)24.2 mphOvercast
7:55 AM3.2 °F-5.8 °F66 %30.02 in10.0 miNW (310°)21.9 mphOvercast
8:15 AM1.4 °F-7.6 °F66 %30.03 in10.0 miNW (320°)25.3 mph31.1 mphOvercast
8:35 AM1.4 °F-7.6 °F66 %30.04 in10.0 miNW (310°)25.3 mph31.1 mphMostly Cloudy
8:55 AM1.4 °F-7.6 °F66 %30.05 in6.0 miNW (310°)21.9 mphSnowLight Snow
9:15 AM1.4 °F-5.8 °F72 %30.06 in5.0 miNW (310°)20.7 mphLight Drizzle
9:35 AM3.2 °F-5.8 °F66 %30.08 in7.0 miNW (310°)21.9 mph29.9 mphLight Drizzle
9:55 AM3.2 °F-5.8 °F66 %30.10 in5.0 miNW (320°)24.2 mphLight Drizzle
10:15 AM3.2 °F-5.8 °F66 %30.11 in9.0 miNW (310°)24.2 mphMostly Cloudy
10:35 AM3.2 °F-5.8 °F66 %30.12 in9.0 miNW (320°)24.2 mph32.2 mphMostly Cloudy
10:55 AM3.2 °F-5.8 °F66 %30.13 in4.0 miNW (310°)26.5 mph33.4 mphLight Drizzle
11:15 AM3.2 °F-7.6 °F61 %30.14 in7.0 miNW (310°)25.3 mphLight Drizzle
11:35 AM3.2 °F-5.8 °F66 %30.14 in7.0 miWNW (300°)27.6 mph33.4 mphLight Drizzle
11:55 AM5.0 °F-5.8 °F61 %30.14 in9.0 miNW (310°)26.5 mph33.4 mphPartly Cloudy
12:15 PM5.0 °F-5.8 °F61 %30.15 in9.0 miNW (310°)26.5 mph39.1 mphScattered Clouds
12:35 PM5.0 °F-4.0 °F66 %30.16 in5.0 miNW (310°)26.5 mph32.2 mphLight Drizzle
12:55 PM5.0 °F-5.8 °F61 %30.16 in8.0 miNW (320°)29.9 mphMostly Cloudy
1:15 PM5.0 °F-5.8 °F61 %30.17 in8.0 miWNW (300°)27.6 mph36.8 mphMostly Cloudy
1:35 PM5.0 °F-7.6 °F56 %30.17 in9.0 miNW (310°)27.6 mph41.4 mphMostly Cloudy
1:55 PM5.0 °F-7.6 °F56 %30.18 in8.0 miNW (310°)31.1 mph41.4 mphScattered Clouds
2:15 PM5.0 °F-7.6 °F56 %30.18 in10.0 miNW (310°)31.1 mph36.8 mphMostly Cloudy
2:35 PM5.0 °F-7.6 °F56 %30.19 in10.0 miNW (320°)29.9 mph40.3 mphMostly Cloudy
2:55 PM5.0 °F-7.6 °F56 %30.20 in10.0 miWNW (300°)29.9 mphMostly Cloudy
3:15 PM5.0 °F-7.6 °F56 %30.21 in10.0 miNW (310°)25.3 mph35.7 mphMostly Cloudy
3:35 PM5.0 °F-5.8 °F61 %30.22 in10.0 miNW (320°)26.5 mphMostly Cloudy
3:55 PM5.0 °F-7.6 °F56 %30.23 in10.0 miNW (310°)25.3 mph33.4 mphScattered Clouds
4:15 PM5.0 °F-7.6 °F56 %30.23 in10.0 miNW (310°)25.3 mph33.4 mphPartly Cloudy
4:35 PM5.0 °F-7.6 °F56 %30.24 in10.0 miNW (310°)21.9 mph28.8 mphScattered Clouds
4:55 PM3.2 °F-7.6 °F61 %30.25 in10.0 miNW (310°)21.9 mph29.9 mphMostly Cloudy
5:15 PM3.2 °F-7.6 °F61 %30.26 in10.0 miNW (310°)21.9 mph27.6 mphMostly Cloudy
5:35 PM3.2 °F-9.4 °F56 %30.27 in10.0 miWNW (300°)23.0 mphScattered Clouds
5:55 PM1.4 °F-7.6 °F66 %30.27 in10.0 miWNW (300°)17.3 mph26.5 mphScattered Clouds
6:15 PM1.4 °F-9.4 °F61 %30.28 in10.0 miNW (310°)17.3 mph26.5 mphPartly Cloudy
6:35 PM1.4 °F-9.4 °F61 %30.28 in10.0 miWNW (300°)18.4 mphClear
6:55 PM1.4 °F-9.4 °F61 %30.30 in10.0 miWNW (300°)16.1 mph25.3 mphClear
7:15 PM1.4 °F-9.4 °F61 %30.30 in10.0 miWNW (300°)16.1 mph24.2 mphClear
7:35 PM-0.4 °F-9.4 °F66 %30.30 in10.0 miNW (310°)20.7 mph26.5 mphPartly Cloudy
7:55 PM-0.4 °F-9.4 °F66 %30.31 in10.0 miWNW (300°)21.9 mph27.6 mphPartly Cloudy
8:15 PM-0.4 °F-11.2 °F60 %30.32 in10.0 miWNW (300°)18.4 mphPartly Cloudy
8:35 PM-0.4 °F-11.2 °F60 %30.32 inWNW (300°)19.6 mph29.9 mphClear
8:55 PM-0.4 °F-11.2 °F60 %30.33 in10.0 miWNW (300°)17.3 mph24.2 mphClear
9:15 PM-0.4 °F-11.2 °F60 %30.33 in10.0 miWNW (300°)18.4 mph26.5 mphClear
9:35 PM-2.2 °F-11.2 °F66 %30.33 in10.0 miWNW (300°)15.0 mph20.7 mphClear
9:55 PM-2.2 °F-11.2 °F66 %30.34 in10.0 miWNW (300°)16.1 mphClear
10:15 PM-2.2 °F-11.2 °F66 %30.34 in10.0 miWNW (300°)17.3 mphClear
10:35 PM-2.2 °F-11.2 °F66 %30.35 in10.0 miWNW (290°)17.3 mph24.2 mphPartly Cloudy
10:55 PM-2.2 °F-11.2 °F66 %30.35 in10.0 miWNW (300°)17.3 mphPartly Cloudy
11:15 PM-2.2 °F-11.2 °F66 %30.35 in10.0 miWNW (300°)16.1 mphClear
11:35 PM-2.2 °F-13.0 °F60 %30.35 in10.0 miNW (310°)15.0 mphClear
11:55 PM-2.2 °F-13.0 °F60 %30.35 in10.0 miNW (310°)19.6 mphClear
Hourly data recorded from KCIN, located miles away from Lavinia, Iowa







STORIES FROM OUR PARTNERS